User: anonymous   Login
Location: Unspecified
(0.0000°N, 0.0000°E)
Time: 07:22:52
(UTC+00:00)
Language:

USA 267 - Orbit

View from above orbital plane
View from above orbital plane
View from above satellite
View from above satellite

Ground track
Ground track

The orbit data is extracted from the following two-line orbital elements,

1 41334U 16010A   17288.77602141 0.00000000  00000-0  00000-0 0    00
2 41334 123.0024  99.6300 0004574  99.3494 260.6506 13.41416725    03
Epoch (UTC): 15 October 2017 18:37:28
Eccentricity: 0.0004574
inclination: 123.0024°
perigee height: 1100 km
apogee height: 1107 km
right ascension of ascending node: 99.6300°
argument of perigee: 99.3494°
revolutions per day: 13.41416725
mean anomaly at epoch: 260.6506°
orbit number at epoch: 0

The dashed part of the orbit path shows where the satellite is in the earth's shadow,  

DLR